Sedona, AZ

11:59 AM MST on April 29, 2017 (GMT -0700)
Sedona

Weather History for KSEZ - June, 2013

Change the Weather History Date:

Monday, June 24, 2013

  Actual Average Record
Temperature  
Mean Temperature 76 °F -  
Max Temperature 86 °F 95 °F 100 °F (2012)
Min Temperature 66 °F 59 °F 66 °F (2013)
Cooling Degree Days 11    
Growing Degree Days 26 (Base 50)    
Moisture  
Dew Point 25 °F    
Average Humidity 15    
Maximum Humidity 21    
Minimum Humidity 10    
Precipitation  
Precipitation 0.00 in - - ()
Sea Level Pressure  
Sea Level Pressure 29.99 in    
Wind  
Wind Speed 10 mph (South)    
Max Wind Speed 21 mph    
Max Gust Speed 32 mph    
Visibility 10 miles    
Events      
Averages and records for this station are not official NWS values.
T = Trace of Precipitation, MM = Missing Value Source: NWS Daily Summary

Daily Weather History Graph

Daily Weather History Graph

Search for Another Location

Airport or City:

Trip Planner

Search our weather history database for the weather conditions in past years. The results will help you decide how hot, cold, wet, or windy it might be!

Date:

Astronomy

Jun. 24, 2013 Rise Set
Actual Time 5:14 AM MST 7:44 PM MST
Civil Twilight 4:45 AM MST 8:14 PM MST
Nautical Twilight 4:08 AM MST 8:50 PM MST
Astronomical Twilight 3:28 AM MST 9:31 PM MST
Moon 8:55 PM MST (6/24) 6:42 AM MST (6/24)
Length of Visible Light 15h 28m
Length of Day
14h 29m
Full, 97% of the Moon is Illuminated
Jun 24
Full
Jun 29
Last Quarter
Jul 8
New
Jul 15
First Quarter
Jul 22
Full

Hourly Weather History & Observations

Time (MST) Temp. Dew Point Humidity Pressure Visibility Wind Dir Wind Speed Gust Speed Precip Events Conditions
12:15 AM 71.6 °F 21.2 °F 15% 29.94 in 10.0 mi South 4.6 mph - N/A   Clear
12:35 AM 71.6 °F 21.2 °F 15% 29.93 in 10.0 mi South 5.8 mph - N/A   Clear
12:55 AM 71.6 °F 21.2 °F 15% 29.93 in 10.0 mi South 5.8 mph - N/A   Clear
1:15 AM 71.6 °F 23.0 °F 16% 29.93 in 10.0 mi SSE 9.2 mph - N/A   Clear
1:35 AM 71.6 °F 23.0 °F 16% 29.93 in 10.0 mi SSE 10.4 mph - N/A   Clear
1:55 AM 71.6 °F 24.8 °F 17% 29.93 in 10.0 mi South 6.9 mph - N/A   Clear
2:15 AM 71.6 °F 23.0 °F 16% 29.93 in 10.0 mi South 8.1 mph - N/A   Clear
2:35 AM 71.6 °F 23.0 °F 16% 29.93 in 10.0 mi South 11.5 mph 16.1 mph N/A   Clear
2:55 AM 69.8 °F 23.0 °F 17% 29.94 in 10.0 mi South 8.1 mph - N/A   Clear
3:15 AM 69.8 °F 23.0 °F 17% 29.94 in 10.0 mi South 6.9 mph - N/A   Clear
3:35 AM 69.8 °F 24.8 °F 18% 29.94 in 10.0 mi South 10.4 mph - N/A   Clear
3:55 AM 69.8 °F 24.8 °F 18% 29.95 in 10.0 mi South 8.1 mph - N/A   Clear
4:15 AM 68.0 °F 24.8 °F 20% 29.95 in 10.0 mi South 4.6 mph - N/A   Clear
4:35 AM 68.0 °F 23.0 °F 18% 29.96 in 10.0 mi South 4.6 mph - N/A   Clear
4:55 AM 68.0 °F 23.0 °F 18% 29.96 in 10.0 mi South 6.9 mph - N/A   Clear
5:15 AM 68.0 °F 23.0 °F 18% 29.97 in 10.0 mi South 6.9 mph - N/A   Clear
5:35 AM 66.2 °F 24.8 °F 21% 29.97 in 10.0 mi SSE 8.1 mph - N/A   Clear
5:55 AM 66.2 °F 23.0 °F 19% 29.98 in 10.0 mi SSE 6.9 mph - N/A   Clear
6:15 AM 68.0 °F 23.0 °F 18% 29.98 in 10.0 mi South 8.1 mph - N/A   Clear
6:35 AM 69.8 °F 24.8 °F 18% 29.99 in 10.0 mi South 8.1 mph - N/A   Clear
6:55 AM 71.6 °F 24.8 °F 17% 30.00 in 10.0 mi SSE 5.8 mph - N/A   Clear
7:15 AM 71.6 °F 26.6 °F 19% 30.01 in 10.0 mi South 4.6 mph - N/A   Clear
7:35 AM 75.2 °F 28.4 °F 18% 30.02 in 10.0 mi South 6.9 mph - N/A   Clear
7:55 AM 77.0 °F 30.2 °F 18% 30.02 in 10.0 mi South 6.9 mph 16.1 mph N/A   Clear
8:15 AM 75.2 °F 30.2 °F 19% 30.03 in 10.0 mi SSE 6.9 mph - N/A   Clear
8:35 AM 77.0 °F 30.2 °F 18% 30.03 in 10.0 mi SSE 12.7 mph 16.1 mph N/A   Clear
8:55 AM 78.8 °F 30.2 °F 17% 30.03 in 10.0 mi SSE 12.7 mph 20.7 mph N/A   Clear
9:15 AM 77.0 °F 30.2 °F 18% 30.03 in 10.0 mi South 13.8 mph 23.0 mph N/A   Clear
9:35 AM 80.6 °F 28.4 °F 15% 30.03 in 10.0 mi SSE 16.1 mph 21.9 mph N/A   Clear
9:55 AM 80.6 °F 30.2 °F 16% 30.03 in 10.0 mi South 15.0 mph 24.2 mph N/A   Clear
10:15 AM 80.6 °F 30.2 °F 16% 30.03 in 10.0 mi South 11.5 mph 17.3 mph N/A   Clear
10:35 AM 80.6 °F 28.4 °F 15% 30.04 in 10.0 mi SSW 11.5 mph 21.9 mph N/A   Clear
10:55 AM 84.2 °F 30.2 °F 14% 30.03 in 10.0 mi South 17.3 mph 24.2 mph N/A   Clear
11:15 AM 80.6 °F 28.4 °F 15% 30.03 in 10.0 mi SW 11.5 mph 24.2 mph N/A   Clear
11:35 AM 80.6 °F 28.4 °F 15% 30.02 in 10.0 mi SSE 12.7 mph 21.9 mph N/A   Clear
11:55 AM 84.2 °F 28.4 °F 13% 30.01 in 10.0 mi SSE 20.7 mph 26.5 mph N/A   Clear
12:15 PM 86.0 °F 28.4 °F 12% 30.01 in 10.0 mi SSW 6.9 mph 27.6 mph N/A   Clear
12:35 PM 86.0 °F 26.6 °F 12% 30.01 in 10.0 mi SW 13.8 mph 32.2 mph N/A   Clear
12:55 PM 84.2 °F 26.6 °F 12% 30.01 in 10.0 mi SSW 10.4 mph 32.2 mph N/A   Clear
1:15 PM 86.0 °F 26.6 °F 12% 30.00 in 10.0 mi SSW 18.4 mph 25.3 mph N/A   Clear
1:35 PM 86.0 °F 24.8 °F 11% 30.00 in 10.0 mi SW 15.0 mph 29.9 mph N/A   Clear
1:55 PM 86.0 °F 26.6 °F 12% 30.00 in 10.0 mi SW 15.0 mph 26.5 mph N/A   Clear
2:15 PM 86.0 °F 24.8 °F 11% 30.00 in 10.0 mi WSW 18.4 mph 29.9 mph N/A   Clear
2:35 PM 86.0 °F 24.8 °F 11% 29.99 in 10.0 mi South 13.8 mph 28.8 mph N/A   Clear
2:55 PM 84.2 °F 23.0 °F 11% 30.00 in 10.0 mi SSW 17.3 mph 28.8 mph N/A   Clear
3:15 PM 86.0 °F 23.0 °F 10% 29.99 in 10.0 mi SW 18.4 mph 29.9 mph N/A   Clear
3:35 PM 84.2 °F 23.0 °F 11% 29.99 in 10.0 mi SSW 16.1 mph 26.5 mph N/A   Clear
3:55 PM 86.0 °F 23.0 °F 10% 29.99 in 10.0 mi SSW 19.6 mph 31.1 mph N/A   Clear
4:15 PM 82.4 °F 23.0 °F 11% 29.99 in 10.0 mi SSW 18.4 mph 26.5 mph N/A   Clear
4:35 PM 84.2 °F 23.0 °F 11% 29.99 in 10.0 mi SSW 16.1 mph 26.5 mph N/A   Clear
4:55 PM 82.4 °F 23.0 °F 11% 29.98 in 10.0 mi SSW 13.8 mph 24.2 mph N/A   Clear
5:15 PM 82.4 °F 23.0 °F 11% 29.98 in 10.0 mi SW 17.3 mph 25.3 mph N/A   Clear
5:35 PM 80.6 °F 23.0 °F 12% 29.98 in 10.0 mi South 10.4 mph 19.6 mph N/A   Clear
5:55 PM 80.6 °F 23.0 °F 12% 29.98 in 10.0 mi SSW 13.8 mph 21.9 mph N/A   Clear
6:15 PM 80.6 °F 23.0 °F 12% 29.98 in 10.0 mi SSW 13.8 mph 23.0 mph N/A   Clear
6:35 PM 78.8 °F 23.0 °F 13% 29.99 in 10.0 mi SSW 13.8 mph 20.7 mph N/A   Clear
6:55 PM 78.8 °F 23.0 °F 13% 29.99 in 10.0 mi SSW 13.8 mph 21.9 mph N/A   Clear
7:15 PM 78.8 °F 23.0 °F 13% 29.99 in 10.0 mi SSW 15.0 mph 21.9 mph N/A   Clear
7:35 PM 77.0 °F 23.0 °F 13% 29.99 in 10.0 mi South 13.8 mph 23.0 mph N/A   Clear
7:55 PM 77.0 °F 23.0 °F 13% 30.00 in 10.0 mi South 13.8 mph 17.3 mph N/A   Clear
8:15 PM 77.0 °F 24.8 °F 14% 29.99 in 10.0 mi South 13.8 mph - N/A   Clear
8:35 PM 75.2 °F 24.8 °F 15% 30.01 in 10.0 mi South 10.4 mph - N/A   Clear
8:55 PM 73.4 °F 24.8 °F 16% 30.01 in 10.0 mi South 9.2 mph - N/A   Clear
9:15 PM 73.4 °F 24.8 °F 16% 30.02 in 10.0 mi South 9.2 mph - N/A   Clear
9:35 PM 73.4 °F 24.8 °F 16% 30.03 in 10.0 mi SSW 9.2 mph - N/A   Clear
9:55 PM 73.4 °F 26.6 °F 18% 30.03 in 10.0 mi SSW 11.5 mph - N/A   Clear
10:15 PM 73.4 °F 26.6 °F 18% 30.03 in 10.0 mi SSW 11.5 mph - N/A   Clear
10:35 PM 73.4 °F 28.4 °F 19% 30.04 in 10.0 mi SSW 11.5 mph - N/A   Clear
10:55 PM 71.6 °F 28.4 °F 20% 30.04 in 10.0 mi SSW 9.2 mph - N/A   Clear
11:15 PM 71.6 °F 28.4 °F 20% 30.05 in 10.0 mi South 6.9 mph - N/A   Clear
11:35 PM 71.6 °F 28.4 °F 20% 30.05 in 10.0 mi South 8.1 mph - N/A   Clear
11:55 PM 71.6 °F 28.4 °F 20% 30.05 in 10.0 mi South 5.8 mph - N/A   Clear